Flag for Brazil Weather past 2 weeks in Salvador, Bahia, Brazil

Now
81 °F

Scattered clouds.


Feels Like: 84 °F
Forecast: 74 / 78 °F
Wind: 10 mph from Southeast

Location: Salvador Aeroporto

Current Time: Aug 22, 2014 at 2:37:50 PM

Latest Report: Aug 22, 2014 at 2:00 PM


Visibility: N/A

Pressure: 30.04 "Hg

Humidity: 70%

Dew point: 70 °F

Location of SalvadorLocation

Historic Weather in Salvador — Graph

°F

Salvador temperature yesterday

Maximum temperature yesterday: 81 °F (at 10:00 AM)
Minimum temperature yesterday: 73 °F (at 3:00 AM)
Average temperature yesterday: 77 °F

Past Weeks' High & Low Weather Summary

 TemperatureHumidityPressure
High82 °F (Aug 17, 12:00 PM)94% (Aug 13, 8:00 AM)30.18 "Hg (Aug 13, 8:00 AM)
Low70 °F (Aug 15, 2:00 AM)54% (Aug 8, 12:00 PM)30.01 "Hg (Aug 19, 4:00 AM)
Average76 °F73%30.10 "Hg
* Reported Aug 7 1:00 PM — Aug 22 1:00 PM, Salvador, Weather by CustomWeather, © 2014

Note: Actual official high and low records may vary slightly from our data, if they occured in-between our weather recording intervals... More about our weather records

Advertising

Salvador weather history for previous 24 hours

 ConditionsComfort  
Time TempWeatherWind HumidityBarometerVisibility
1:00 PM
Aug 22
81 °FScattered clouds.9 mph66%30.07 "HgN/A
12:00 PM79 °FScattered clouds.12 mph70%30.09 "HgN/A
11:00 AM81 °FScattered clouds.12 mph66%30.12 "HgN/A
10:00 AM81 °FScattered clouds.12 mph66%30.12 "HgN/A
9:00 AM79 °FScattered clouds.10 mph70%30.12 "HgN/A
8:00 AM79 °FScattered clouds.9 mph70%30.12 "HgN/A
7:00 AM77 °FScattered clouds.8 mph74%30.09 "HgN/A
6:00 AM75 °FScattered clouds.8 mph78%30.07 "HgN/A
5:00 AM73 °FPassing clouds.9 mph78%30.04 "HgN/A
4:00 AM75 °FPassing clouds.12 mph78%30.07 "HgN/A
3:00 AM75 °FPassing clouds.9 mph78%30.07 "HgN/A
2:00 AM75 °FPassing clouds.6 mph78%30.07 "HgN/A
1:00 AM75 °FPassing clouds.7 mph78%30.09 "HgN/A
12:00 AM75 °FPassing clouds.7 mph78%30.09 "HgN/A
11:00 PM
Aug 21
75 °FPassing clouds.9 mph78%30.12 "HgN/A
10:00 PM75 °FPassing clouds.9 mph78%30.12 "HgN/A
9:00 PM75 °FPassing clouds.8 mph78%30.12 "HgN/A
8:00 PM77 °FPassing clouds.7 mph74%30.09 "HgN/A
7:00 PM77 °FPassing clouds.10 mph74%30.09 "HgN/A
6:00 PM77 °FPassing clouds.10 mph74%30.07 "HgN/A
5:00 PM77 °FScattered clouds.10 mph74%30.07 "HgN/A
4:00 PM79 °FScattered clouds.13 mph70%30.07 "HgN/A
3:00 PM77 °FScattered clouds.8 mph74%30.07 "HgN/A
2:00 PM81 °FScattered clouds.12 mph66%30.07 "HgN/A
Weather by CustomWeather, © 2014

See weather overviewHow to use our weather pages